Greenwood, Nova Scotia

4:53 PM ADT on April 27, 2017 (GMT -0300)
Greenwood

Weather History for CYZX - October, 2012

Change the Weather History Date:

Wednesday, October 31, 2012

  Actual Average Record
Temperature  
Mean Temperature 61 °F -  
Max Temperature 64 °F 46 °F 64 °F (2012)
Min Temperature 58 °F 31 °F 21 °F (2013)
Degree Days  
Heating Degree Days 4    
Growing Degree Days 11 (Base 50)    
Moisture  
Dew Point 59 °F    
Average Humidity 90    
Maximum Humidity 100    
Minimum Humidity 77    
Precipitation  
Precipitation 1.02 in 0.14 in - ()
Sea Level Pressure  
Sea Level Pressure 29.74 in    
Wind  
Wind Speed 12 mph ()    
Max Wind Speed 21 mph    
Max Gust Speed 29 mph    
Visibility 9.1 miles    
Events Rain , Thunderstorm    
Averages and records for this station are not official NWS values.
T = Trace of Precipitation, MM = Missing Value Source: Averaged Metar Reports

Daily Weather History Graph

Daily Weather History Graph

Search for Another Location

Airport or City:

Trip Planner

Search our weather history database for the weather conditions in past years. The results will help you decide how hot, cold, wet, or windy it might be!

Date:

Astronomy

Oct. 31, 2012 Rise Set
Actual Time 7:57 AM ADT 6:08 PM ADT
Civil Twilight 7:26 AM ADT 6:39 PM ADT
Nautical Twilight 6:52 AM ADT 7:13 PM ADT
Astronomical Twilight 6:17 AM ADT 7:47 PM ADT
Moon 7:11 PM ADT (10/31) 9:39 AM ADT (10/31)
Length of Visible Light 11h 12m
Length of Day
10h 11m
Full, 97% of the Moon is Illuminated
Oct 31
Full
Nov 6
Last Quarter
Nov 13
New
Nov 20
First Quarter
Nov 28
Full

Hourly Weather History & Observations

Time (ADT) Temp. Dew Point Humidity Pressure Visibility Wind Dir Wind Speed Gust Speed Precip Events Conditions
12:00 AM 60.8 °F 59.0 °F 94% 29.91 in 6.0 mi East 11.5 mph 17.3 mph N/A Rain Light Rain Showers
12:18 AM - - N/A% - 10.0 mi ESE 13.8 mph 21.9 mph N/A   Light Drizzle
1:00 AM 62.6 °F 59.0 °F 88% 29.88 in 8.0 mi ESE 18.4 mph 28.8 mph N/A   Light Drizzle
2:00 AM 62.6 °F 59.0 °F 88% 29.86 in 12.0 mi SE 20.7 mph 27.6 mph N/A   Light Drizzle
3:00 AM 62 °F 60 °F 89% 29.87 in 7 mi ESE 18.4 mph - - Rain Light Drizzle
3:00 AM 62.6 °F 59.0 °F 88% 29.87 in 8.0 mi ESE 18.4 mph 25.3 mph N/A   Light Drizzle
3:24 AM - - N/A% - 8.0 mi SE 17.3 mph - N/A   Light Drizzle
3:32 AM - - N/A% - 1.0 mi SE 19.6 mph - N/A Rain , Thunderstorm Heavy Thunderstorms and Rain
3:48 AM - - N/A% - 4.0 mi SSW 9.2 mph 17.3 mph N/A Rain Light Rain Showers
4:00 AM 60.8 °F 60.8 °F 100% 29.88 in 1.0 mi WSW 3.5 mph - N/A Rain Rain Showers
4:10 AM - - N/A% - 6.0 mi SW 2.3 mph - N/A Rain Light Rain Showers
5:00 AM 62.6 °F 60.8 °F 94% 29.83 in 10.0 mi ESE 10.4 mph 17.3 mph N/A Rain Light Rain Showers
5:21 AM - - N/A% - 6.0 mi ESE 16.1 mph - N/A Rain Rain Showers
5:37 AM - - N/A% - 8.0 mi ESE 16.1 mph - N/A Rain Light Rain Showers
6:00 AM 62.6 °F 57.2 °F 82% 29.82 in 8.0 mi ESE 17.3 mph 23.0 mph N/A Rain Light Rain Showers
6:26 AM - - N/A% - 8.0 mi SE 17.3 mph 24.2 mph N/A Rain Light Rain Showers
7:00 AM 62.6 °F 59.0 °F 88% 29.81 in 5.0 mi ESE 13.8 mph 23.0 mph N/A Rain Light Rain Showers
7:10 AM - - N/A% - 3.0 mi SE 16.1 mph - N/A Rain Rain Showers
7:26 AM - - N/A% - 3.0 mi SE 17.3 mph 24.2 mph N/A Rain Light Rain Showers
8:00 AM 60.8 °F 59.0 °F 94% 29.79 in 3.0 mi East 13.8 mph - N/A Rain Light Rain Showers
8:09 AM - - N/A% - 5.0 mi East 15.0 mph - N/A Rain Light Rain Showers
9:00 AM 61 °F 59 °F 91% 29.79 in 6 mi ESE 18.4 mph - - Rain Light Rain Showers
9:00 AM 60.8 °F 59.0 °F 94% 29.79 in 6.0 mi East 15.0 mph 20.7 mph N/A Rain Light Rain Showers
9:35 AM - - N/A% - 4.0 mi SSE 10.4 mph 17.3 mph N/A Rain Rain Showers
10:00 AM 60.8 °F 59.0 °F 94% 29.82 in 4.0 mi SE 8.1 mph - N/A Rain Rain Showers
11:00 AM 60.8 °F 59.0 °F 94% 29.73 in 6.0 mi ENE 9.2 mph - N/A Rain Rain Showers
11:39 AM - - N/A% - 12.0 mi NE 15.0 mph - N/A Rain Light Rain Showers
12:00 PM 60.8 °F 57.2 °F 88% 29.70 in 15.0 mi ENE 13.8 mph 23.0 mph N/A Rain Light Rain Showers
12:10 PM - - N/A% - 15.0 mi East 12.7 mph 19.6 mph N/A   Overcast
1:00 PM 60.8 °F 59.0 °F 94% 29.72 in 15.0 mi East 15.0 mph 21.9 mph N/A   Overcast
1:15 PM - - N/A% - 15.0 mi SE 15.0 mph 21.9 mph N/A   Overcast
1:38 PM - - N/A% - 15.0 mi ESE 3.5 mph - N/A   Overcast
2:00 PM 62.6 °F 59.0 °F 88% 29.71 in 15.0 mi SE 9.2 mph - N/A   Overcast
3:00 PM 64 °F 59 °F 77% 29.68 in 15 mi ESE 13.8 mph - -   Partly Cloudy
3:00 PM 64.4 °F 59.0 °F 83% 29.67 in 15.0 mi SE 13.8 mph 19.6 mph N/A   Overcast
4:00 PM 64.4 °F 57.2 °F 77% 29.68 in 15.0 mi ESE 12.7 mph 19.6 mph N/A   Overcast
4:12 PM - - N/A% - 4.0 mi ESE 13.8 mph - N/A Rain Rain Showers
4:33 PM - - N/A% - 15.0 mi East 11.5 mph 17.3 mph N/A   Overcast
5:00 PM 64.4 °F 60.8 °F 88% 29.66 in 12.0 mi ESE 13.8 mph - N/A   Overcast
6:00 PM 64.4 °F 60.8 °F 88% 29.64 in 10.0 mi ESE 10.4 mph 19.6 mph N/A   Overcast
6:13 PM - - N/A% - 12.0 mi ESE 10.4 mph - N/A Rain Light Rain Showers
7:00 PM 62.6 °F 60.8 °F 94% 29.63 in 12.0 mi SE 11.5 mph - N/A Rain Light Rain Showers
8:00 PM 62.6 °F 60.8 °F 94% 29.62 in 12.0 mi SE 9.2 mph - N/A Rain Light Rain Showers
8:19 PM - - N/A% - 3.0 mi SE 4.6 mph - N/A Rain Heavy Rain Showers
8:26 PM - - N/A% - 4.0 mi SE 4.6 mph - N/A Rain Light Rain Showers
9:00 PM 62 °F 60 °F 92% 29.61 in 10 mi SSE 3.5 mph - - Rain Light Rain Showers
9:00 PM 62.6 °F 60.8 °F 94% 29.60 in 10.0 mi South 3.5 mph - N/A Rain Light Rain Showers
9:17 PM - - N/A% - 12.0 mi ESE 3.5 mph - N/A   Overcast
10:00 PM 60.8 °F 60.8 °F 100% 29.60 in 15.0 mi ESE 3.5 mph - N/A   Mostly Cloudy
11:00 PM 60.8 °F 59.0 °F 94% 29.60 in 15.0 mi ESE 10.4 mph - N/A   Mostly Cloudy
11:47 PM - - N/A% - 15.0 mi ESE 3.5 mph - N/A   Overcast